Regional Weather Roundup
Issued by NWS New Orleans/Baton Rouge, LA

Home | Current Version | Previous Version | Graphics & Text | Print | Product List | Glossary On
Versions: 1 2 3 4 5 6 7 8 9 10 11 12 13 14 15 16 17 18 19 20 21 22 23 24 25 26 27 28 29 30 31 32 33 34 35 36 37 38 39 40 41 42 43 44 45 46 47 48 49 50
840
ASUS44 KLIX 222201
RWRLIX
NEW ORLEANS REGIONAL WEATHER ROUNDUP
NATIONAL WEATHER SERVICE NEW ORLEANS LA
500 PM CDT MON SEP 22 2014

NOTE: "FAIR" INDICATES FEW OR NO CLOUDS BELOW 12,000 FEET WITH NO
      SIGNIFICANT WEATHER AND/OR OBSTRUCTIONS TO VISIBILITY.
      SKY/WX - SKY CONDITION AND SIGNIFICANT WEATHER.
      TMP - AIR TEMPERATURE.     DP    - DEWPOINT TEMPERATURE.
      RH  - RELATIVE HUMIDITY.   PRES  - PRESSURE.
      HI  - HEAT INDEX.          WCI   - WIND CHILL INDEX.

*  THESE STATIONS ARE NOT NWS OR FAA STATIONS AND ARE NOT UNDER
   NWS QUALITY CONTROL.

LAZ038-040-048-061>063-065>067-069-222300-
SOUTHEAST LOUISIANA

CITY           SKY/WX    TMP DP  RH WIND       PRES   REMARKS
N.O. AUDUBON     N/A     87  73  63 MISG        N/A  HX  95
N.O. INTL ARPT MOSUNNY   88  70  55 N18       29.96S
N.O. LAKEFRONT MOSUNNY   87  73  62 N18       29.97R
N.O. DOWNTOWN*   N/A     88  70  55 N12G18    29.96F
SLIDELL        SUNNY     87  66  49 N13G22    29.97R
BATON ROUGE    SUNNY     87  65  47 NE12      29.99S
BOOTHVILLE     MOSUNNY   85  70  60 E7        29.96S
BELLE CHASSE   LGT RAIN  81  71  71 NE6       29.96R
BOGALUSA*        N/A     87  56  35 NE10G17   30.01S
GALLIANO*      NOT AVBL
NEW ROADS*       N/A     84  64  49 N12G21    30.02R
GONZALES*        N/A     87  70  56 N6        29.97S
HAMMOND*       NOT AVBL
HOUMA*         NOT AVBL
PORT FOURCHON* CLEAR     88  68  51 NE9       29.98S

$$

MSZ070-080>082-222300-
SOUTHERN MISSISSIPPI

CITY           SKY/WX    TMP DP  RH WIND       PRES   REMARKS
MCCOMB         SUNNY     85  52  32 N10       30.03S
GULFPORT       MOSUNNY   85  66  53 NE13      29.96S
BILOXI         SUNNY     85  67  55 NE13G20   29.97S
PASCAGOULA     MOSUNNY   86  69  56 N12       29.96F
STENNIS ARPT*  MOSUNNY   88  64  45 N15       29.98R

$$

COASTAL OBSERVATIONS
LAKE AND NEARSHORE STATIONS

STATION/POSITION TIME  TEMP    WIND        PRES    WAVE
                       AIR SEA DIR/SP/G            HT/PER
                 (UTC) (F)     (DEG/KT/KT) (MB)    (FT/S)
PASCAGOULA       2100   85      30/  9/ 14 1013.9
WAVELAND YACHT   2100   84      20/ 14/ 17 1014.2
GRAND ISLE       2100   87 83   50/  6/  8 1015.1
SOUTHWEST PASS   2100   92 90   80/ 11/ 14 1014.7
NEW CANAL        2100   85 83   30/ 15/ 17 1015.2
SHELL BEACH      2100   79 81  290/  5/  6 1014.7

OFFSHORE STATIONS

STATION/POSITION TIME  TEMP    WIND        PRES    WAVE
                       AIR SEA DIR/SP/G            HT/PER
                 (UTC) (F)     (DEG/KT/KT) (MB)    (FT/S)
64 S DAUPHIN ISL 2128   82 85   50/ 10/ 12 1014.6    2/ 5

$$




USA.gov is the U.S. government's official web portal to all federal, state and local government web resources and services.